MORDOVIA-IOT (RS50S)

Last updated on Mon Nov 03 2025 00:03:22 GMT+0000 (Coordinated Universal Time)

1 61765U 24199AG 25306.50828304 .00092994 00000+0 12432-2 0 9992 2 61765 97.3230 178.6938 0008092 25.6545 334.5111 15.57694460 99608
UTC large
Height (km)
Speed (km/s)
/
Latitude / Longitude
Inclination (degrees)
Orbital Period (minutes)
Azimuth
Elevation
Range (km)
Doppler Factor

Next 0 passes for location: London (51.5072 / 0.1276)

Sorry there are no passes over London.